Tracking 30918 objects as of 2-Jul-2025
HD Live streaming from Space Station
objects crossing your sky now

RSW-02

Track RSW-02 now!
10-day predictions


NORAD ID: 49114
Int'l Code: 2021-076C
Perigee: 1,092.6 km
Apogee: 1,119.0 km
Inclination: 86.4 °
Period: 107.2 minutes
Semi major axis: 7476 km
RCS: Unknown
Launch date: August 24, 2021
Source: People's Republic of China (PRC)
Launch site: Jiuquan Satellite Launch Center, China (JSC)
Your satellite tracking list
NOAA 16 DEB
Track 1 satellite(s)




NASA's NSSDC Master Catalog

Two Line Element Set (TLE):
1 49114U 21076C   25182.83808970  .00000065  00000-0  87330-4 0  9992
2 49114  86.4067 282.9647 0017642 326.5015  33.5012 13.42862160188860
Source of the keplerian elements: AFSPC